Location: Copenhagen
(55.6670°N, 12.5830°E)
Time: 15:18:27
(UTC+02:00)

ISS - Visible Passes

Search period start: 19 September 2024 00:00
Search period end: 29 September 2024 00:00
Orbit: 414 x 423 km, 51.6° (Epoch: 19 September)

Date Brightness Start Highest point End Pass type
(mag) Time Alt. Az. Time Alt. Az. Time Alt. Az.
19 Sep -2.9 19:56:05 10° SW 19:59:11 35° SSE 20:02:18 10° E visible
19 Sep -2.9 21:32:26 10° WSW 21:35:15 38° SSW 21:35:15 38° SSW visible
20 Sep -3.1 20:44:43 10° WSW 20:47:55 41° S 20:49:13 27° SE visible
20 Sep -1.1 22:21:25 10° W 22:22:09 14° WSW 22:22:09 14° WSW visible
21 Sep -3.0 19:56:59 10° WSW 20:00:10 41° S 20:03:09 11° ESE visible
21 Sep -2.4 21:33:33 10° W 21:36:04 29° SW 21:36:04 29° SW visible
22 Sep -2.8 20:45:42 10° W 20:48:49 35° SSW 20:49:59 27° SSE visible
22 Sep -0.7 22:22:51 10° WSW 22:22:54 10° WSW 22:22:54 10° WSW visible
23 Sep -2.9 19:57:51 10° WSW 20:01:01 39° S 20:03:52 12° ESE visible
23 Sep -1.7 21:34:43 10° WSW 21:36:47 20° SW 21:36:47 20° SW visible
24 Sep -2.2 20:46:41 10° W 20:49:31 26° SSW 20:50:39 21° S visible
25 Sep -2.4 19:58:40 10° W 20:01:41 31° SSW 20:04:32 11° SE visible
25 Sep -1.1 21:36:22 10° WSW 21:37:27 12° SW 21:37:27 12° SW visible
26 Sep -1.4 20:47:48 10° WSW 20:49:57 16° SSW 20:51:21 13° S visible
27 Sep -1.7 19:59:31 10° WSW 20:02:06 21° SSW 20:04:42 10° SSE visible
